Location: Cactus School
(34.5700°N, 118.0931°W)
Time: 13:32:44
(UTC-08:00)

Transit 4A - Visible Passes

Search period start: 18 November 2019 00:00
Search period end: 28 November 2019 00:00
Orbit: 869 x 976 km, 66.8° (Epoch: 18 November)

Date Brightness Start Highest point End Pass type
(mag) Time Alt. Az. Time Alt. Az. Time Alt. Az.
18 Nov 10.0 05:52:08 10° N 05:56:28 21° NE 06:00:45 10° E visible
19 Nov 9.5 06:00:55 10° N 06:06:04 30° NE 06:11:07 10° ESE visible
21 Nov 10.4 04:36:09 10° NNE 04:37:32 11° NE 04:38:54 10° ENE visible
22 Nov 10.2 04:43:43 10° N 04:47:17 16° NE 04:50:49 10° E visible
23 Nov 9.8 04:52:17 10° N 04:56:57 24° NE 05:01:32 10° ESE visible
24 Nov 9.2 05:01:09 10° N 05:06:29 35° ENE 05:11:45 10° ESE visible
24 Nov 10.5 20:03:21 10° SSW 20:03:29 11° SSW 20:03:29 11° SSW visible
25 Nov 8.4 05:10:12 10° NNW 05:15:56 54° ENE 05:21:35 10° SE visible
25 Nov 9.7 18:28:44 10° SSE 18:30:06 14° SE 18:30:06 14° SE visible
25 Nov 10.3 20:12:53 10° SW 20:13:41 14° SW 20:13:41 14° SW visible
26 Nov 10.3 03:35:38 10° NNE 03:38:04 13° NE 03:40:28 10° ENE visible
26 Nov 7.8 05:19:25 10° NNW 05:25:18 83° ENE 05:31:06 10° SSE visible
26 Nov 9.1 18:36:50 10° SSE 18:40:18 26° SE 18:40:18 26° SE visible
26 Nov 10.3 20:22:43 10° SW 20:23:53 15° WSW 20:23:53 15° WSW visible
27 Nov 10.0 03:45:24 15° NNE 03:47:47 19° NE 03:51:44 10° E visible
27 Nov 7.8 05:28:57 11° NNW 05:34:35 64° WSW 05:40:17 10° SSE visible
27 Nov 8.3 18:45:27 10° S 18:50:28 45° SE 18:50:28 45° SE visible
27 Nov 10.5 20:32:55 10° WSW 20:34:03 14° W 20:34:03 14° W visible
